OBJECT S, 61751

Orbit data source: Space-Track

You're viewing an uncataloged RSO

Recently launched and/or uncataloged RSOs may have evolving metadata. Metadata may include the following, but is not limited to: Owner, Manufacturer, Bus, Motor, and Mission.

OBJECT S, 61751 is a satellite in SSO that was launched on Mon, 04 Nov 2024 UTC via a SOYUZ-2-1B launch vehicle from the Vostochny Cosmodrome (VOSTO). Unknown objects in Earth's orbit typically refer to objects detected orbiting the Earth but have not yet been identified or cataloged. These objects could be anything from previously untracked satellites, spent rocket stages, debris from satellite collisions, or even natural meteoroids temporarily captured by Earth's gravity.

Loading next visibility...
Identifier
61751, 2024-199S
Orbit
SSO
Country
Flag of TBDTBD
Related business
None
Manufacturer
Unknown
Mission
Operational Commercial Technology
Bus & Motor
Unknown
Mass
Unknown
Launch date (UTC)
2024-11-04 (2 years ago)
Launch vehicle
SOYUZ-2-1B
Launch site
Vostochny Cosmodrome (VOSTO)
Object type
Unknown
Shape & HBR
Box, 0.2 m
Radar Cross Section
0.035 m², Medium (>0.1 m² and < 1m²)

Expand to show TLE details & history
Last TLE update: 9 hours ago

TLE from 9 hours ago
0 OBJECT S
1 61751U 24199S   26264.27808788  .00006482  00000-0  17385-3 0  9990
2 61751  97.2834 133.0467 0008178 331.5415  28.5383 15.38282313151906
Epoch: 2026-09-21T06:40Z
TLE epoch observation values (Epoch: 2026-09-21T06:40:26.792Z)
Latitude
-0.00002°
Longitude
32.77486°
Altitude
449.401 km
Speed
7.645 km/s
True Right ascension
08h 52m 11s
True Declination
0° 00' 00"
Sunlit
Object was in daylight at epoch
Visualization orbit readout
Latitude
Unknown
Longitude
Unknown
Altitude
Unknown
Speed
Unknown
Apparent Right ascension
Unknown
Apparent Declination
Unknown
Sunlit
N/A
Visualization observer readout
Local Sidereal Time
09:00:12
Azimuth
Unknown
Elevation
Unknown
Doppler factor
Unknown
Orbital elements
Apogee altitude
453.707 km
Perigee altitude
442.542 km
Semi-major axis
6,826.262 km
Eccentricity
0.00082
Inclination
97.2834°
RAAN
133.0467°
Arg. of periapsis
331.5415°
True anomaly
28.58311°
Mean anomaly
28.5383°
Eccentric anomaly
28.5607°
Mean motion
3.8483 °/min
Orbital period
93.55 mins
BSTAR
0.00017385
Loading maneuver chart data...
Computing Atmospheric mass density...
Loading historical data...
Loading historical data...
Loading historical data...
Loading historical data...
Loading historical data...
Loading historical data...
Loading historical data...

Documentation

Showing up to 5 results
|